When you browse on this site, cookies collect data to enhance your experience and personalize the content and advertising you see.
Visit our Privacy Policy to learn more. By continuing to use the site, you agree to this use of cookies and data.
  • In Spain
  • List of Countries
  • For 7 days
  • Water Temperature
  • Satellite Maps
  • Weather Map
  • Weather Widgets
  • user-avatar
    Login

    Hourly Weather Batina

    Today, 20 January, Sunday

    Time Temperature Precipitation Wind Pressure Humidity
    00:00 +3°C° 0 mm 1 mps 666 mmHg 90%
    01:00 +3°C° 0 mm 1 mps 666 mmHg 90%
    02:00 +3°C° 0 mm 1 mps 666 mmHg 91%
    03:00 +3°C° 0 mm 1 mps 666 mmHg 91%
    04:00 +3°C° 0 mm 1 mps 666 mmHg 90%
    05:00 +1°C° 0 mm 2 mps 665 mmHg 90%
    06:00 +1°C° 0 mm 2 mps 665 mmHg 90%
    07:00 +3°C° 0 mm 2 mps 666 mmHg 78%
    08:00 +3°C° 0 mm 3 mps 666 mmHg 67%
    09:00 +5°C° 0 mm 3 mps 666 mmHg 56%
    10:00 +6°C° 0 mm 4 mps 666 mmHg 54%
    11:00 +7°C° 0 mm 4 mps 666 mmHg 53%
    12:00 +8°C° 0 mm 5 mps 666 mmHg 51%
    13:00 +8°C° 0.1 mm 5 mps 665 mmHg 56%
    14:00 +7°C° 0.1 mm 5 mps 665 mmHg 60%
    15:00 +7°C° 0.1 mm 5 mps 665 mmHg 65%
    16:00 +6°C° 0.1 mm 5 mps 664 mmHg 70%
    17:00 +5°C° 0.1 mm 4 mps 664 mmHg 74%
    18:00 +4°C° 0.1 mm 4 mps 664 mmHg 79%
    19:00 +5°C° 0.1 mm 4 mps 664 mmHg 81%
    20:00 +5°C° 0.1 mm 3 mps 664 mmHg 82%
    21:00 +5°C° 0.1 mm 3 mps 664 mmHg 84%
    22:00 +5°C° 0.4 mm 3 mps 664 mmHg 86%
    23:00 +5°C° 0.4 mm 3 mps 664 mmHg 87%

    Tomorrow, 21 January, Monday

    Time Temperature Precipitation Wind Pressure Humidity
    00:00 +5°C° 0.4 mm 4 mps 664 mmHg 89%
    01:00 +4°C° 0 mm 3 mps 663 mmHg 90%
    02:00 +4°C° 0 mm 3 mps 663 mmHg 91%
    03:00 +4°C° 0 mm 3 mps 663 mmHg 92%
    04:00 +4°C° 0.1 mm 3 mps 663 mmHg 93%
    05:00 +3°C° 0.1 mm 3 mps 663 mmHg 93%
    06:00 +3°C° 0.1 mm 3 mps 663 mmHg 94%
    07:00 +4°C° 0 mm 3 mps 663 mmHg 87%
    08:00 +5°C° 0 mm 4 mps 663 mmHg 81%
    09:00 +6°C° 0 mm 5 mps 664 mmHg 75%
    10:00 +6°C° 0 mm 5 mps 664 mmHg 71%
    11:00 +7°C° 0 mm 5 mps 664 mmHg 67%
    12:00 +7°C° 0 mm 5 mps 664 mmHg 63%
    13:00 +5°C° 0.3 mm 6 mps 664 mmHg 68%
    14:00 +4°C° 0.3 mm 8 mps 664 mmHg 73%
    15:00 +3°C° 0.3 mm 9 mps 664 mmHg 77%
    16:00 +2°C° 0.4 mm 8 mps 664 mmHg 80%
    17:00 +2°C° 0.4 mm 8 mps 665 mmHg 82%
    18:00 +2°C° 0.4 mm 7 mps 665 mmHg 84%
    19:00 +2°C° 0.1 mm 6 mps 666 mmHg 84%
    20:00 +2°C° 0.1 mm 6 mps 666 mmHg 84%
    21:00 +1°C° 0.1 mm 5 mps 667 mmHg 85%
    22:00 +1°C° 0.1 mm 4 mps 667 mmHg 85%
    23:00 +1°C° 0.1 mm 4 mps 667 mmHg 85%

    Day after tomorrow, 22 January, Tuesday

    Time Temperature Precipitation Wind Pressure Humidity
    00:00 +2°C° 0.1 mm 3 mps 667 mmHg 85%
    01:00 +2°C° 0 mm 3 mps 667 mmHg 86%
    02:00 +1°C° 0 mm 3 mps 667 mmHg 86%
    03:00 +2°C° 0 mm 2 mps 667 mmHg 86%
    04:00 +2°C° 0 mm 2 mps 667 mmHg 86%
    05:00 +1°C° 0 mm 2 mps 667 mmHg 86%
    06:00 -1°C° 0 mm 2 mps 667 mmHg 85%
    07:00 +1°C° 0 mm 2 mps 667 mmHg 80%
    08:00 +2°C° 0 mm 2 mps 667 mmHg 74%
    09:00 +3°C° 0 mm 2 mps 668 mmHg 68%
    10:00 +4°C° 0 mm 2 mps 668 mmHg 64%
    11:00 +4°C° 0 mm 2 mps 667 mmHg 60%
    12:00 +5°C° 0 mm 2 mps 667 mmHg 55%
    13:00 +5°C° 0.1 mm 2 mps 667 mmHg 54%
    14:00 +5°C° 0.1 mm 3 mps 666 mmHg 52%
    15:00 +5°C° 0.1 mm 3 mps 666 mmHg 51%
    16:00 +4°C° 0 mm 3 mps 665 mmHg 56%
    17:00 +4°C° 0 mm 2 mps 665 mmHg 60%
    18:00 +3°C° 0 mm 2 mps 665 mmHg 65%
    19:00 +3°C° 0 mm 2 mps 664 mmHg 69%
    20:00 +1°C° 0 mm 3 mps 664 mmHg 72%
    21:00 +1°C° 0 mm 3 mps 664 mmHg 76%
    22:00 +1°C° 0 mm 3 mps 664 mmHg 76%
    23:00 0°C° 0 mm 3 mps 663 mmHg 77%

    23 January, Wednesday

    Time Temperature Precipitation Wind Pressure Humidity
    00:00 0°C° 0 mm 3 mps 662 mmHg 77%
    01:00 -1°C° 0.1 mm 4 mps 662 mmHg 76%
    02:00 -1°C° 0.1 mm 4 mps 661 mmHg 75%
    03:00 -1°C° 0.1 mm 4 mps 660 mmHg 74%
    04:00 -1°C° 0.3 mm 5 mps 660 mmHg 78%
    05:00 0°C° 0.3 mm 5 mps 659 mmHg 83%
    06:00 0°C° 0.3 mm 5 mps 659 mmHg 88%
    07:00 -1°C° 0.5 mm 6 mps 659 mmHg 85%
    08:00 0°C° 0.5 mm 7 mps 659 mmHg 82%
    09:00 0°C° 0.5 mm 8 mps 659 mmHg 79%
    10:00 0°C° 0.1 mm 9 mps 659 mmHg 74%
    11:00 +1°C° 0.1 mm 10 mps 658 mmHg 70%
    12:00 0°C° 0.1 mm 12 mps 658 mmHg 65%
    13:00 0°C° 0.1 mm 12 mps 657 mmHg 64%
    14:00 0°C° 0.1 mm 12 mps 657 mmHg 64%
    15:00 +2°C° 0.1 mm 12 mps 656 mmHg 63%
    16:00 +1°C° 0.7 mm 11 mps 656 mmHg 70%
    17:00 +1°C° 0.7 mm 10 mps 656 mmHg 78%
    18:00 0°C° 0.7 mm 9 mps 655 mmHg 85%
    19:00 0°C° 0.9 mm 9 mps 656 mmHg 86%
    20:00 -1°C° 0.9 mm 9 mps 656 mmHg 86%
    21:00 -2°C° 0.9 mm 10 mps 656 mmHg 87%
    22:00 -3°C° 0.3 mm 10 mps 656 mmHg 87%
    23:00 -3°C° 0.3 mm 10 mps 656 mmHg 87%

    24 January, Thursday

    Time Temperature Precipitation Wind Pressure Humidity
    00:00 -3°C° 0.3 mm 10 mps 655 mmHg 87%
    01:00 -4°C° 0.1 mm 9 mps 655 mmHg 87%
    02:00 -5°C° 0.1 mm 8 mps 655 mmHg 87%
    03:00 -6°C° 0.1 mm 7 mps 654 mmHg 88%
    04:00 -5°C° 0 mm 6 mps 655 mmHg 87%
    05:00 -6°C° 0 mm 6 mps 655 mmHg 87%
    06:00 -6°C° 0 mm 5 mps 655 mmHg 87%
    07:00 -6°C° 0 mm 6 mps 655 mmHg 83%
    08:00 -6°C° 0 mm 8 mps 656 mmHg 79%
    09:00 -5°C° 0 mm 9 mps 656 mmHg 75%
    10:00 -5°C° 0 mm 9 mps 656 mmHg 72%
    11:00 -4°C° 0 mm 9 mps 656 mmHg 69%
    12:00 -4°C° 0 mm 9 mps 657 mmHg 67%
    13:00 -4°C° 0 mm 9 mps 656 mmHg 68%
    14:00 -4°C° 0 mm 9 mps 656 mmHg 68%
    15:00 -4°C° 0 mm 9 mps 656 mmHg 69%
    16:00 -5°C° 0 mm 8 mps 657 mmHg 73%
    17:00 -6°C° 0 mm 7 mps 657 mmHg 77%
    18:00 -6°C° 0 mm 6 mps 657 mmHg 81%
    19:00 -6°C° 0.2 mm 7 mps 658 mmHg 82%
    20:00 -6°C° 0.2 mm 7 mps 658 mmHg 84%
    21:00 -5°C° 0.2 mm 8 mps 659 mmHg 85%
    22:00 -5°C° 0.4 mm 8 mps 659 mmHg 86%
    23:00 -5°C° 0.4 mm 8 mps 660 mmHg 87%

    25 January, Friday

    Time Temperature Precipitation Wind Pressure Humidity
    00:00 -5°C° 0.4 mm 8 mps 660 mmHg 87%
    01:00 -4°C° 0 mm 7 mps 660 mmHg 89%
    02:00 -4°C° 0 mm 6 mps 660 mmHg 90%
    03:00 -4°C° 0 mm 6 mps 660 mmHg 91%
    04:00 -5°C° 0 mm 5 mps 661 mmHg 92%
    05:00 -4°C° 0 mm 4 mps 661 mmHg 92%
    06:00 -5°C° 0 mm 4 mps 661 mmHg 92%
    07:00 -4°C° 0 mm 4 mps 662 mmHg 90%
    08:00 -3°C° 0 mm 4 mps 663 mmHg 87%
    09:00 -2°C° 0 mm 4 mps 664 mmHg 85%
    10:00 -1°C° 0 mm 4 mps 664 mmHg 83%
    11:00 0°C° 0 mm 5 mps 665 mmHg 81%
    12:00 0°C° 0 mm 5 mps 665 mmHg 79%
    13:00 0°C° 0 mm 5 mps 665 mmHg 80%
    14:00 0°C° 0 mm 5 mps 665 mmHg 81%
    15:00 +1°C° 0 mm 5 mps 666 mmHg 82%
    16:00 0°C° 0.1 mm 4 mps 666 mmHg 85%
    17:00 0°C° 0.1 mm 4 mps 667 mmHg 89%
    18:00 -1°C° 0.1 mm 4 mps 667 mmHg 92%
    19:00 -1°C° 0.1 mm 5 mps 668 mmHg 93%
    20:00 -2°C° 0.1 mm 6 mps 668 mmHg 93%
    21:00 -2°C° 0.1 mm 7 mps 668 mmHg 94%
    22:00 -2°C° 0 mm 5 mps 669 mmHg 93%
    23:00 -2°C° 0 mm 4 mps 669 mmHg 93%
    Show more